TimeEDT,TemperatureF,Dew PointF,Humidity,Sea Level PressureIn,VisibilityMPH,Wind Direction,Wind SpeedMPH,Gust SpeedMPH,PrecipitationIn,Events,Conditions,WindDirDegrees,DateUTC
12:17 AM,33.8,30.2,87,29.87,10.0,NW,5.8,-,N/A,,Overcast,320,2013-03-26 04:17:00
12:37 AM,33.8,30.2,87,29.87,10.0,NW,5.8,-,N/A,,Overcast,320,2013-03-26 04:37:00
12:57 AM,33.8,30.2,87,29.87,10.0,NW,8.1,-,N/A,,Overcast,320,2013-03-26 04:57:00
1:17 AM,35.6,28.4,75,29.88,10.0,NW,8.1,-,N/A,,Overcast,320,2013-03-26 05:17:00
1:37 AM,35.6,28.4,75,29.88,10.0,NW,6.9,-,N/A,,Overcast,320,2013-03-26 05:37:00
1:57 AM,35.6,28.4,75,29.88,10.0,NNW,6.9,-,N/A,,Overcast,330,2013-03-26 05:57:00
2:17 AM,35.6,28.4,75,29.88,10.0,NW,9.2,-,N/A,,Overcast,320,2013-03-26 06:17:00
2:37 AM,35.6,28.4,75,29.89,10.0,NNW,8.1,-,N/A,,Overcast,330,2013-03-26 06:37:00
2:57 AM,35.6,28.4,75,29.89,10.0,NW,5.8,-,N/A,,Overcast,320,2013-03-26 06:57:00
3:17 AM,33.8,28.4,81,29.89,10.0,NNW,9.2,-,N/A,,Overcast,330,2013-03-26 07:17:00
3:37 AM,33.8,28.4,81,29.89,10.0,NW,8.1,-,N/A,,Overcast,320,2013-03-26 07:37:00
3:57 AM,33.8,28.4,81,29.89,10.0,NW,8.1,-,N/A,,Overcast,320,2013-03-26 07:57:00
4:17 AM,33.8,28.4,81,29.89,10.0,NW,5.8,-,N/A,,Overcast,320,2013-03-26 08:17:00
4:37 AM,33.8,28.4,81,29.90,10.0,NW,5.8,-,N/A,,Overcast,320,2013-03-26 08:37:00
4:57 AM,33.8,30.2,87,29.90,10.0,NW,8.1,-,N/A,,Overcast,320,2013-03-26 08:57:00
5:17 AM,33.8,30.2,87,29.91,10.0,NW,6.9,-,N/A,,Overcast,320,2013-03-26 09:17:00
5:37 AM,33.8,30.2,87,29.91,10.0,NW,6.9,-,N/A,,Overcast,310,2013-03-26 09:37:00
5:57 AM,33.8,30.2,87,29.91,10.0,NW,9.2,-,N/A,,Overcast,310,2013-03-26 09:57:00
6:17 AM,33.8,30.2,87,29.92,10.0,NW,8.1,-,N/A,,Overcast,310,2013-03-26 10:17:00
6:37 AM,33.8,30.2,87,29.93,10.0,NW,4.6,-,N/A,,Overcast,310,2013-03-26 10:37:00
6:57 AM,33.8,30.2,87,29.93,10.0,NW,6.9,-,N/A,,Overcast,320,2013-03-26 10:57:00
7:17 AM,33.8,30.2,87,29.94,10.0,NW,8.1,-,N/A,,Overcast,310,2013-03-26 11:17:00
7:37 AM,33.8,30.2,87,29.95,10.0,NW,9.2,-,N/A,,Overcast,320,2013-03-26 11:37:00
7:57 AM,33.8,30.2,87,29.95,10.0,NW,5.8,-,N/A,,Overcast,320,2013-03-26 11:57:00
8:17 AM,33.8,30.2,87,29.96,10.0,WNW,6.9,-,N/A,,Overcast,300,2013-03-26 12:17:00
8:37 AM,33.8,30.2,87,29.97,10.0,NW,9.2,-,N/A,,Overcast,310,2013-03-26 12:37:00
8:57 AM,33.8,30.2,87,29.97,10.0,NW,8.1,-,N/A,,Overcast,310,2013-03-26 12:57:00
9:17 AM,33.8,30.2,87,29.97,10.0,NW,8.1,-,N/A,,Overcast,310,2013-03-26 13:17:00
9:37 AM,35.6,30.2,81,29.98,10.0,NW,8.1,-,N/A,,Overcast,310,2013-03-26 13:37:00
9:57 AM,35.6,30.2,81,29.98,10.0,NW,9.2,16.1,N/A,,Overcast,310,2013-03-26 13:57:00
10:17 AM,35.6,30.2,81,29.99,10.0,NW,10.4,17.3,N/A,,Overcast,320,2013-03-26 14:17:00
10:37 AM,37.4,32.0,81,29.99,10.0,NNW,8.1,-,N/A,,Overcast,340,2013-03-26 14:37:00
10:57 AM,37.4,32.0,81,29.99,10.0,NW,11.5,-,N/A,,Overcast,310,2013-03-26 14:57:00
11:17 AM,39.2,32.0,75,30.00,10.0,NNW,8.1,-,N/A,,Overcast,330,2013-03-26 15:17:00
11:37 AM,37.4,32.0,81,30.00,10.0,NW,6.9,-,N/A,,Overcast,310,2013-03-26 15:37:00
11:57 AM,37.4,32.0,81,30.01,10.0,NW,9.2,-,N/A,,Overcast,320,2013-03-26 15:57:00
12:17 PM,37.4,32.0,81,30.01,10.0,NW,8.1,-,N/A,Rain,Light Rain,320,2013-03-26 16:17:00
12:37 PM,39.2,32.0,75,30.01,10.0,NNW,6.9,-,N/A,,Overcast,330,2013-03-26 16:37:00
12:57 PM,39.2,32.0,75,30.00,10.0,WNW,9.2,-,N/A,,Overcast,300,2013-03-26 16:57:00
1:17 PM,41.0,32.0,70,30.00,10.0,WNW,11.5,-,N/A,,Overcast,300,2013-03-26 17:17:00
1:37 PM,41.0,32.0,70,30.00,10.0,NW,12.7,16.1,N/A,,Overcast,310,2013-03-26 17:37:00
1:57 PM,42.8,32.0,66,30.00,10.0,NNW,9.2,-,N/A,,Overcast,330,2013-03-26 17:57:00
2:17 PM,42.8,30.2,61,30.00,10.0,NNW,10.4,21.9,N/A,,Mostly Cloudy,330,2013-03-26 18:17:00
2:37 PM,42.8,32.0,66,29.99,10.0,North,8.1,-,N/A,,Mostly Cloudy,360,2013-03-26 18:37:00
2:57 PM,42.8,30.2,61,29.99,10.0,NNW,9.2,-,N/A,,Overcast,330,2013-03-26 18:57:00
3:17 PM,42.8,30.2,61,29.99,10.0,NNW,11.5,-,N/A,,Overcast,330,2013-03-26 19:17:00
3:37 PM,41.0,30.2,65,30.00,10.0,NNW,10.4,-,N/A,Rain,Light Rain,330,2013-03-26 19:37:00
3:57 PM,41.0,32.0,70,30.00,10.0,Calm,Calm,-,N/A,,Overcast,0,2013-03-26 19:57:00
4:17 PM,39.2,32.0,75,30.00,10.0,Calm,Calm,-,N/A,Rain,Light Rain,0,2013-03-26 20:17:00
4:37 PM,41.0,32.0,70,30.00,10.0,East,3.5,-,N/A,,Overcast,100,2013-03-26 20:37:00
4:57 PM,37.4,32.0,81,30.01,10.0,NE,8.1,-,N/A,Rain,Light Rain,40,2013-03-26 20:57:00
5:17 PM,37.4,33.8,87,30.01,10.0,NNE,4.6,-,N/A,,Overcast,20,2013-03-26 21:17:00
5:37 PM,39.2,33.8,81,30.01,10.0,NE,4.6,-,N/A,,Mostly Cloudy,40,2013-03-26 21:37:00
5:57 PM,37.4,32.0,81,30.01,10.0,ENE,5.8,-,N/A,,Overcast,60,2013-03-26 21:57:00
6:17 PM,37.4,32.0,81,30.02,10.0,Calm,Calm,-,N/A,,Overcast,0,2013-03-26 22:17:00
6:37 PM,33.8,32.0,93,30.04,1.2,North,3.5,11.5,N/A,Snow,Light Snow,10,2013-03-26 22:37:00
6:57 PM,33.8,32.0,93,30.04,1.2,Calm,Calm,-,N/A,Snow,Light Snow,0,2013-03-26 22:57:00
7:17 PM,32.0,32.0,100,30.04,1.8,Calm,Calm,-,N/A,Snow,Light Snow,0,2013-03-26 23:17:00
7:37 PM,32.0,32.0,100,30.05,10.0,Calm,Calm,-,N/A,,Overcast,0,2013-03-26 23:37:00
7:57 PM,32.0,32.0,100,30.05,10.0,ENE,3.5,-,N/A,,Overcast,60,2013-03-26 23:57:00
8:17 PM,32.0,32.0,100,30.05,10.0,NE,3.5,-,N/A,,Overcast,50,2013-03-27 00:17:00
8:37 PM,32.0,32.0,100,30.06,10.0,Calm,Calm,-,N/A,,Overcast,0,2013-03-27 00:37:00
8:57 PM,32.0,32.0,100,30.06,10.0,Calm,Calm,-,N/A,,Overcast,0,2013-03-27 00:57:00
9:17 PM,32.0,32.0,100,30.06,5.0,Calm,Calm,-,N/A,,Overcast,0,2013-03-27 01:17:00
9:37 PM,32.0,32.0,100,30.07,4.0,Calm,Calm,-,N/A,,Overcast,0,2013-03-27 01:37:00
9:57 PM,32.0,32.0,100,30.07,4.0,Calm,Calm,-,N/A,,Overcast,0,2013-03-27 01:57:00
10:17 PM,32.0,32.0,100,30.07,3.0,Calm,Calm,-,N/A,,Overcast,0,2013-03-27 02:17:00
10:37 PM,32.0,32.0,100,30.07,3.0,Calm,Calm,-,N/A,,Overcast,0,2013-03-27 02:37:00
10:57 PM,30.2,30.2,100,30.07,1.5,Calm,Calm,-,N/A,,Overcast,0,2013-03-27 02:57:00
11:17 PM,30.2,30.2,100,30.07,3.0,Calm,Calm,-,N/A,,Overcast,0,2013-03-27 03:17:00
11:37 PM,30.2,30.2,100,30.07,3.0,Calm,Calm,-,N/A,,Overcast,0,2013-03-27 03:37:00
11:57 PM,30.2,30.2,100,30.07,2.5,Calm,Calm,-,N/A,,Overcast,0,2013-03-27 03:57:00